Satellite-Ground Cal/Val Site Overpasses Predictions

Prediction of Satellite NPP Overpassing Cal/Val Site: Antarctic Dome C

Ground Cal/Val Site Location: Latitude: -75.10, Longitude: 123.35; Satellite-Ground Site NADIR distance within 100 km.

Table of predicted overpasses for the next 14.0 days since TLE Epoch: 8/2/2013
Interval Starting Time Ending Time Minimum Distance Time Minimum Distance (km)
1 08/03/2013 15:01:09 08/03/2013 15:01:32 08/03/2013 15:01:20 60.67
2 08/04/2013 14:42:20 08/04/2013 14:42:45 08/04/2013 14:42:32 48.46
3 08/05/2013 07:44:01 08/05/2013 07:44:22 08/05/2013 07:44:12 68.22
4 08/06/2013 07:25:11 08/06/2013 07:25:37 08/06/2013 07:25:24 39.66
5 08/08/2013 15:07:42 08/08/2013 15:07:46 08/08/2013 15:07:44 98.79
6 08/09/2013 14:48:40 08/09/2013 14:49:10 08/09/2013 14:48:55 12.35
7 08/11/2013 07:31:32 08/11/2013 07:32:01 08/11/2013 07:31:47 3.22
8 08/14/2013 14:55:04 08/14/2013 14:55:33 08/14/2013 14:55:18 24.58
9 08/15/2013 14:36:22 08/15/2013 14:36:38 08/15/2013 14:36:30 82.54
